Location: Augsburg
(48.3836°N, 10.8929°E)
Time: 13:19:42
(UTC+01:00)

ISS - Pass Details

Date: 08 January 2018
Orbit: 402 x 407 km, 51.6° (Epoch: 22 January)

Event Time Altitude Azimuth Distance (km) Brightness Sun altitude
Exits shadow 06:38:40 27° 303° (WNW) 811 -2.9 -14.0°
Maximum altitude 06:40:13 60° 14° (NNE) 473 -3.6 -13.7°
Drops below altitude 10° 06:43:28 10° 96° (E) 1,468 0.4 -13.2°
Sets 06:45:35 0° 100° (E) 2,328 1.9 -12.9°
